Torna al catalogo

STARLINK-30124

AttivoComunicazioniVLEO
NORAD 56690·PAYLOAD·🇺🇸 United States

Lanciato May 19, 2023 da Cape Canaveral Space Force Station

Loading…

Prossimi Passaggi (prossime 24 ore)

TLE

AggiornatoSource: CelesTrak SupGP

Epoca: Sep 14, 2026, 14:32 UTC

1 56690C 23067C   26257.60604167  .00042646  00000+0  15442-2 0  2572
2 56690  43.0023 294.4316 0001729 277.3392   8.8460 15.27566006    16

Traccia STARLINK-30124 in tempo reale con AllMySat

Download on the App Store